Location: Burland Observatory
(39.4088°N, 105.4217°W)
Time: 12:31:59
(UTC-07:00)

S-56A Canister/Altair - Pass Details

Date: 14 December 2019
Orbit: 634 x 2498 km, 38.9° (Epoch: 23 January)

Event Time Altitude Azimuth Distance (km) Brightness Sun altitude
Rises 16:56:13 0° 284° (WNW) 6,047 13.0 -3.8°
Reaches altitude 10° 17:02:40 10° 266° (W) 4,793 12.9 -4.9°
Maximum altitude 17:09:11 15° 236° (SW) 3,989 12.7 -6.0°
Drops below altitude 10° 17:14:52 10° 204° (SSW) 4,033 12.0 -7.0°
Sets 17:19:32 0° 183° (S) 4,640 11.9 -7.9°
